Location: Geography Hall
(41.1195°N, 80.5706°W)
Time: 20:19:55
(UTC+00:00)

AQUARIUS - Pass Details

Date: 29 October 2020
Orbit: 650 x 653 km, 98.0° (Epoch: 03 December)

Event Time Altitude Azimuth Distance (km) Brightness Sun altitude
Rises 23:00:29 0° 171° (S) 2,959 7.6 -8.0°
Reaches altitude 10° 23:02:41 10° 173° (S) 2,053 6.8 -8.5°
Maximum altitude 23:07:09 73° 258° (WSW) 686 4.5 -9.3°
Drops below altitude 10° 23:11:40 10° 343° (NNW) 2,068 6.8 -10.1°
Sets 23:13:54 0° 346° (NNW) 2,984 7.6 -10.5°
